Orbital Elements at Epoch 2459200.5 (2020-Dec-17.0) TDB
Reference: JPL 35 (heliocentric ecliptic J2000)
Element | Value | Uncertainty (1-sigma) | Units |
e | .08101238250924694 | 2.3459e-08 | |
a | 2.968688398490516 | 1.5755e-08 | au |
q | 2.728187878401239 | 7.2395e-08 | au |
i | 12.3240657649375 | 8.3419e-07 | deg |
node | 322.2000785200581 | 7.6792e-06 | deg |
peri | 215.5908750638221 | 2.0028e-05 | deg |
M | 230.6265045853887 | 2.0544e-05 | deg |
tp | 2459871.910549963040 (2022-Oct-19.41054996) | 0.0001091 | TDB |
period | 1868.294562283244 5.12 | 1.4873e-05 4.072e-08 | d yr |
n | .1926891012089891 | 1.534e-09 | deg/d |
Q | 3.209188918579794 | 1.7032e-08 | au |
|
| | Orbit Determination Parameters
Additional Information
|